Tracking 30703 objects as of 12-Jun-2025
HD Live streaming from Space Station
objects crossing your sky now

BREEZE-M R/B

Track BREEZE-M R/B now!


NORAD ID: 33280
Int'l Code: 2008-039C
Perigee: 4,358.6 km
Apogee: 35,867.0 km
Inclination: 22.8 °
Period: 714.9 minutes
Semi major axis: 26483 km
RCS: 8.2222 m2 (large)
Launch date: August 18, 2008
Source: Commonwealth of Independent States (former USSR) (CIS)
Launch site: TYURATAM MISSILE AND SPACE COMPLEX (TTMTR)

Note: This is a ROCKET BODY
Your satellite tracking list
Your tracking list is empty




NASA's NSSDC Master Catalog

Two Line Element Set (TLE):
1 33280U 08039C   25160.15303979 -.00000687  00000-0  00000-0 0  9999
2 33280  22.7862  62.0686 5948602 251.5587  37.8567  2.01433801123611
Source of the keplerian elements: AFSPC